| time (UTC) | temp F | wind direction | speed knots | gust knots | rain 1hr in | rain 24hr in | rain mn in | humidity % | barometer mb |
| 20260509104548 | 42 | 110 | 0.0 | 0.9 | 0.00 | 0.00 | 0.00 | 82 | 1015.3 |
| 20260509103044 | 44 | 149 | 0.0 | 0.9 | 0.00 | 0.00 | 0.00 | 78 | 1015.3 |
| 20260509101551 | 47 | 149 | 0.0 | 0.9 | 0.00 | 0.00 | 0.00 | 72 | 1015.2 |
| 20260509100044 | 46 | 116 | 0.0 | 2.6 | 0.00 | 0.00 | 0.00 | 77 | 1015.1 |
| 20260509094538 | 47 | 206 | 0.0 | 0.9 | 0.00 | 0.00 | 0.00 | 76 | 1014.7 |
| 20260509093035 | 46 | 118 | 0.0 | 0.9 | 0.00 | 0.00 | 0.00 | 80 | 1014.7 |
| 20260509091534 | 46 | 110 | 0.0 | 0.9 | 0.00 | 0.00 | 0.00 | 78 | 1014.7 |
| 20260509090028 | 48 | 167 | 0.0 | 0.9 | 0.00 | 0.00 | 0.00 | 73 | 1014.7 |
| 20260509084529 | 50 | 9 | 0.0 | 0.0 | 0.00 | 0.00 | 0.00 | 69 | 1014.7 |
| 20260509083024 | 51 | 328 | 0.0 | 0.9 | 0.00 | 0.00 | 0.00 | 68 | 1014.6 |
| 20260509081521 | 53 | 8 | 0.0 | 2.6 | 0.00 | 0.00 | 0.00 | 62 | 1014.4 |
| 20260509080020 | 52 | 32 | 0.0 | 3.5 | 0.00 | 0.00 | 0.00 | 64 | 1014.4 |
| 20260509074518 | 51 | 134 | 0.0 | 4.3 | 0.00 | 0.00 | 0.00 | 66 | 1014.2 |
| 20260509073025 | 53 | 112 | 0.0 | 7.0 | 0.00 | 0.00 | 0.00 | 58 | 1014.3 |
| 20260509071513 | 54 | 122 | 1.7 | 5.2 | 0.00 | 0.00 | 0.00 | 57 | 1013.9 |
| 20260509070011 | 54 | 260 | 0.0 | 4.3 | 0.00 | 0.00 | 0.00 | 58 | 1013.9 |
| 20260509064510 | 54 | 99 | 0.9 | 6.1 | 0.00 | 0.00 | 0.00 | 59 | 1013.7 |
| 20260509063013 | 54 | 97 | 3.5 | 7.0 | 0.00 | 0.00 | 0.00 | 57 | 1013.7 |
| 20260509061605 | 54 | 93 | 1.7 | 5.2 | 0.00 | 0.00 | 0.00 | 57 | 1013.8 |
| 20260509060004 | 54 | 92 | 0.9 | 4.3 | 0.00 | 0.00 | 0.00 | 59 | 1013.9 |
| 20260509054502 | 54 | 124 | 1.7 | 4.3 | 0.00 | 0.00 | 0.00 | 60 | 1013.8 |
| 20260509053002 | 54 | 80 | 2.6 | 6.1 | 0.00 | 0.00 | 0.00 | 59 | 1013.7 |
| 20260509051501 | 54 | 106 | 0.9 | 3.5 | 0.00 | 0.00 | 0.00 | 58 | 1013.8 |
| 20260509050101 | 55 | 114 | 0.0 | 1.7 | 0.00 | 0.00 | 0.00 | 58 | 1013.7 |
| 20260509044559 | 56 | 86 | 0.0 | 4.3 | 0.00 | 0.00 | 0.00 | 56 | 1013.4 |
| 20260509043058 | 56 | 60 | 2.6 | 6.1 | 0.00 | 0.00 | 0.00 | 55 | 1013.4 |
| 20260509041558 | 56 | 86 | 1.7 | 5.2 | 0.00 | 0.00 | 0.00 | 54 | 1013.3 |
| 20260509040125 | 56 | 122 | 1.7 | 5.2 | 0.00 | 0.00 | 0.00 | 54 | 1013.0 |
| 20260509034600 | 57 | 75 | 2.6 | 6.1 | 0.00 | 0.00 | 0.00 | 52 | 1013.0 |
| 20260509033055 | 58 | 66 | 3.5 | 7.8 | 0.00 | 0.00 | 0.00 | 50 | 1012.6 |
| 20260509031558 | 58 | 98 | 1.7 | 4.3 | 0.00 | 0.00 | 0.00 | 50 | 1012.3 |
| 20260509030058 | 59 | 93 | 1.7 | 5.2 | 0.00 | 0.00 | 0.00 | 49 | 1012.2 |
| 20260509024555 | 61 | 65 | 1.7 | 3.5 | 0.00 | 0.00 | 0.00 | 44 | 1012.0 |
| 20260509023052 | 61 | 60 | 0.9 | 2.6 | 0.00 | 0.00 | 0.00 | 48 | 1011.9 |
| 20260509021552 | 63 | 87 | 0.0 | 2.6 | 0.00 | 0.00 | 0.00 | 44 | 1011.7 |
| 20260509020052 | 63 | 13 | 0.0 | 1.7 | 0.00 | 0.00 | 0.00 | 42 | 1011.5 |
| 20260509014551 | 63 | 209 | 0.0 | 0.0 | 0.00 | 0.00 | 0.00 | 47 | 1011.3 |
| 20260509013052 | 65 | 209 | 0.0 | 1.7 | 0.00 | 0.00 | 0.00 | 42 | 1011.4 |
| 20260509011558 | 66 | 313 | 0.0 | 1.7 | 0.00 | 0.00 | 0.00 | 32 | 1011.2 |
| 20260509010050 | 66 | 353 | 0.0 | 2.6 | 0.00 | 0.00 | 0.00 | 32 | 1011.3 |
| 20260509004605 | 66 | 285 | 0.9 | 3.5 | 0.00 | 0.00 | 0.00 | 33 | 1011.2 |
| 20260509003049 | 67 | 266 | 0.0 | 3.5 | 0.00 | 0.00 | 0.00 | 31 | 1011.2 |
| 20260509001548 | 67 | 162 | 1.7 | 5.2 | 0.00 | 0.00 | 0.00 | 31 | 1011.1 |
| 20260509000048 | 67 | 215 | 3.5 | 7.0 | 0.00 | 0.00 | 0.00 | 31 | 1010.9 |
| 20260508234545 | 67 | 202 | 0.9 | 5.2 | 0.00 | 0.00 | 0.00 | 34 | 1011.0 |
| 20260508233045 | 68 | 127 | 1.7 | 4.3 | 0.00 | 0.00 | 0.00 | 32 | 1011.1 |
| 20260508231545 | 67 | 195 | 0.9 | 5.2 | 0.00 | 0.00 | 0.00 | 34 | 1011.0 |
| 20260508230044 | 67 | 136 | 2.6 | 5.2 | 0.00 | 0.00 | 0.00 | 37 | 1010.8 |
| 20260508224545 | 68 | 155 | 1.7 | 6.1 | 0.00 | 0.00 | 0.00 | 34 | 1010.8 |
| 20260508223049 | 69 | 209 | 0.0 | 8.7 | 0.00 | 0.00 | 0.00 | 35 | 1010.6 |
| 20260508221542 | 69 | 146 | 2.6 | 7.8 | 0.00 | 0.00 | 0.00 | 33 | 1010.6 |
| 20260508220041 | 70 | 186 | 1.7 | 7.8 | 0.00 | 0.00 | 0.00 | 34 | 1010.6 |
| 20260508214548 | 71 | 199 | 2.6 | 9.6 | 0.00 | 0.00 | 0.00 | 33 | 1010.6 |
| 20260508213040 | 72 | 209 | 2.6 | 7.8 | 0.00 | 0.00 | 0.00 | 32 | 1010.4 |
| 20260508211539 | 73 | 217 | 1.7 | 10.4 | 0.00 | 0.00 | 0.00 | 32 | 1010.5 |
| 20260508210039 | 74 | 248 | 2.6 | 7.0 | 0.00 | 0.00 | 0.00 | 29 | 1010.4 |
| 20260508204542 | 74 | 309 | 3.5 | 10.4 | 0.00 | 0.00 | 0.00 | 28 | 1010.4 |
| 20260508203035 | 74 | 316 | 3.5 | 9.6 | 0.00 | 0.00 | 0.00 | 29 | 1010.5 |
| 20260508201535 | 74 | 264 | 3.5 | 7.0 | 0.00 | 0.00 | 0.00 | 27 | 1010.5 |
| 20260508200030 | 74 | 44 | 0.9 | 4.3 | 0.00 | 0.00 | 0.00 | 32 | 1010.5 |
| 20260508194528 | 73 | 171 | 1.7 | 5.2 | 0.00 | 0.00 | 0.00 | 34 | 1010.5 |
| 20260508193028 | 74 | 295 | 0.0 | 1.7 | 0.00 | 0.00 | 0.00 | 39 | 1010.6 |
| 20260508191528 | 72 | 289 | 0.9 | 6.1 | 0.00 | 0.00 | 0.00 | 36 | 1010.8 |
| 20260508190027 | 72 | 96 | 0.9 | 3.5 | 0.00 | 0.00 | 0.00 | 37 | 1010.9 |
| 20260508184520 | 72 | 15 | 0.9 | 2.6 | 0.00 | 0.00 | 0.00 | 38 | 1011.1 |
| 20260508183017 | 70 | 40 | 1.7 | 4.3 | 0.00 | 0.00 | 0.00 | 40 | 1011.2 |
| 20260508181517 | 70 | 101 | 0.0 | 2.6 | 0.00 | 0.00 | 0.00 | 41 | 1011.4 |
| 20260508180017 | 68 | 56 | 0.9 | 1.7 | 0.00 | 0.00 | 0.00 | 45 | 1011.5 |
| 20260508174511 | 67 | 124 | 0.9 | 2.6 | 0.00 | 0.00 | 0.00 | 51 | 1011.9 |
| 20260508173008 | 66 | 275 | 0.0 | 2.6 | 0.00 | 0.00 | 0.00 | 52 | 1012.1 |
| 20260508171501 | 64 | 257 | 0.0 | 2.6 | 0.00 | 0.00 | 0.00 | 54 | 1012.3 |
| 20260508170100 | 64 | 280 | 0.0 | 2.6 | 0.00 | 0.00 | 0.00 | 58 | 1012.3 |
| 20260508164555 | 62 | 280 | 0.0 | 1.7 | 0.00 | 0.00 | 0.00 | 61 | 1012.6 |
| 20260508163051 | 60 | 41 | 0.0 | 3.5 | 0.00 | 0.00 | 0.00 | 63 | 1012.8 |
| 20260508161549 | 58 | 70 | 0.0 | 2.6 | 0.00 | 0.00 | 0.00 | 65 | 1012.9 |
| 20260508160105 | 58 | 86 | 0.0 | 0.9 | 0.00 | 0.00 | 0.00 | 66 | 1013.1 |
| 20260508154543 | 55 | 77 | 0.0 | 1.7 | 0.00 | 0.00 | 0.00 | 72 | 1013.2 |
| 20260508153045 | 54 | 68 | 0.0 | 0.9 | 0.00 | 0.00 | 0.00 | 73 | 1013.3 |
| 20260508151538 | 52 | 58 | 0.0 | 1.7 | 0.00 | 0.00 | 0.00 | 75 | 1013.5 |
| 20260508150037 | 50 | 82 | 0.0 | 0.9 | 0.00 | 0.00 | 0.00 | 80 | 1013.6 |
| 20260508144535 | 49 | 123 | 0.0 | 0.9 | 0.00 | 0.00 | 0.00 | 82 | 1013.7 |
| 20260508143042 | 47 | 253 | 0.0 | 0.9 | 0.00 | 0.00 | 0.00 | 86 | 1013.6 |
| 20260508141547 | 46 | 210 | 0.0 | 0.0 | 0.00 | 0.00 | 0.00 | 88 | 1013.7 |
| 20260508140033 | 44 | 286 | 0.0 | 0.9 | 0.00 | 0.00 | 0.00 | 90 | 1013.6 |
| 20260508134534 | 42 | 157 | 0.0 | 0.0 | 0.00 | 0.00 | 0.00 | 92 | 1013.6 |
| 20260508133030 | 41 | 211 | 0.0 | 0.9 | 0.00 | 0.00 | 0.00 | 92 | 1013.5 |
| 20260508131529 | 40 | 272 | 0.0 | 0.9 | 0.00 | 0.00 | 0.00 | 94 | 1013.5 |
| 20260508130028 | 39 | 203 | 0.0 | 0.9 | 0.00 | 0.00 | 0.00 | 93 | 1013.3 |
| 20260508124526 | 39 | 238 | 0.0 | 0.0 | 0.00 | 0.00 | 0.00 | 93 | 1013.1 |
| 20260508123025 | 39 | 238 | 0.0 | 0.9 | 0.00 | 0.00 | 0.00 | 92 | 1013.1 |
| 20260508121548 | 39 | 75 | 0.0 | 0.9 | 0.00 | 0.00 | 0.00 | 94 | 1012.9 |
| 20260508120022 | 39 | 139 | 0.0 | 0.9 | 0.00 | 0.00 | 0.00 | 92 | 1012.9 |
| 20260508114519 | 40 | 108 | 0.0 | 0.0 | 0.00 | 0.00 | 0.00 | 94 | 1013.0 |
| 20260508113018 | 40 | 121 | 0.0 | 0.9 | 0.00 | 0.00 | 0.00 | 94 | 1013.1 |
| 20260508111516 | 42 | 103 | 0.0 | 0.9 | 0.00 | 0.00 | 0.00 | 89 | 1012.8 |
| 20260508110015 | 40 | 95 | 0.0 | 0.9 | 0.00 | 0.00 | 0.00 | 91 | 1012.7 |